Location: Alafon
(8.4500°N, 4.2333°E)
Time: 14:08:07
(UTC+00:00)

Vanguard 1 Rocket - Pass Details

Date: 30 July 2021
Orbit: 650 x 4226 km, 34.3° (Epoch: 27 September)

Event Time Altitude Azimuth Distance (km) Brightness Sun altitude
Rises 19:11:43 0° 283° (WNW) 2,950 11.7 -16.5°
Reaches altitude 10° 19:14:12 10° 268° (W) 2,058 10.3 -17.0°
Maximum altitude 19:17:54 25° 211° (SSW) 1,456 8.5 -17.9°
Enters shadow 19:21:14 15° 165° (SSE) 2,186 9.0 -18.6°
